Regional Weather Roundup
Issued by NWS Goodland, KS

Home | Current Version | Previous Version | Graphics & Text | Print | Product List | Glossary On
Versions: 1 2 3 4 5 6 7 8 9 10 11 12 13 14 15 16 17 18 19 20 21 22 23 24 25 26 27 28 29 30 31 32 33 34 35 36 37 38 39 40 41 42 43 44 45 46 47 48 49 50
000
ASUS43 KGLD 170559
RWRGLD

GOODLAND FORECAST AREA HOURLY WEATHER ROUNDUP
NATIONAL WEATHER SERVICE GOODLAND KS
1200 AM MDT TUE OCT 17 2017

...OFFICIAL OBSERVATIONS...

CITY           SKY/WX    TMP DP  RH WIND       PRES   REMARKS
GOODLAND KS    CLEAR     46  31  55 SW7       30.16R
HILL CITY KS   CLEAR     54  36  50 SW10      30.12S
IMPERIAL NEB   CLEAR     48  28  46 NW9       30.15S
MCCOOK NEB     CLOUDY    52  38  58 W6        30.11R
AKRON CO       CLOUDY    58  14  17 CALM      30.23R
BURLINGTON CO  CLEAR     42  31  64 CALM      30.20R
LIMON CO       CLOUDY    36  23  59 NW5       30.26F
$$

...UNOFFICIAL OBSERVATIONS...

CITY           SKY/WX    TMP DP  RH WIND       PRES   REMARKS
NORTON KS      CLEAR     54  36  50 SW8       30.09F
SHARON SPRINGS   N/A     47  34  61 CALM        N/A
TRENTON NEB      N/A     47  32  56 N7          N/A
KIT CARSON CO    N/A     44  30  59 MISG        N/A
YUMA CO        FAIR      37  28  70 W5        30.20S
$$



USA.gov is the U.S. government's official web portal to all federal, state and local government web resources and services.